sat.trackr.live / text

‹ back to catalog

STARLINK-36929

NORAD 68067 · 2026-041AD

PAYLOAD ACTIVE UNKNOWN

§ Identity

Operator
Country
US
Launch date
2026-03-02
Launch site
AFETR
Launch vehicle
Mass (kg)
RCS (m²)

Purposes: comms

External: N2YO · Heavens-Above · Gunter

§ Orbital elements

Epoch: 2026-09-19T15:11:00.439008Z

Period
93.85 min
Inclination
53.1591°
Eccentricity
0.0001104
Mean motion
15.34400513 rev/d
Perigee alt
461.9 km
Apogee alt
463.5 km
Semi-major
6,840.8 km
B*
3.8881e-4
RAAN
223.9435°
Arg perigee
78.0969°
Mean anomaly
282.0158°
Rev number
3,115

§ Raw data

STARLINK-369291 68067U 26041AD  26262.63264397  .00012783  00000+0  38881-3 0  99992 68067  53.1591 223.9435 0001104  78.0969 282.0158 15.34400513 31158

JSON: /api/v1/satellites/68067 · /tle

For live sub-satellite position, see the globe view (requires WebGL).

§ Visibility from observer

Set your observer location to see the next 7 days of passes ≥ 10°. The values pass through the URL so the page stays shareable.

No JS? Fill the form by hand. The geolocation button needs JavaScript.